WetterOnline ( https://www.wetteronline.de )

Wetter aktuell Ör

Aktuelles Wetter: Satenas (54m)

6-stündlich | Neueste Meldungen
Ortszeit Temperatur Wetter
Fr, 14.05. 8:00 12.1° C wolkig
Fr, 14.05. 2:00 11.0° C fast wolkenlos
Do, 13.05. 20:00 16.2° C wolkig
Do, 13.05. 14:00 16.8° C wolkenlos
Do, 13.05. 8:00 10.5° C bedeckt
Do, 13.05. 2:00 10.8° C bewölkt
Mi, 12.05. 20:00 15.5° C wolkig
Mi, 12.05. 14:00 13.4° C wolkig
Ortszeit Temperatur Wetter
Fr, 14.05. 10:20 15° C -
Fr, 14.05. 10:00 13.4° C wolkig
Fr, 14.05. 9:50 13° C leicht bewölkt
Fr, 14.05. 9:00 13.0° C leichte Schauer
Fr, 14.05. 8:50 13° C leichte Schauer
Fr, 14.05. 8:20 12° C bewölkt
Fr, 14.05. 8:00 12.1° C wolkig
Fr, 14.05. 7:20 12° C -
Fr, 14.05. 7:00 11.1° C wolkig
Ortszeit Relative Feuchte Sichtweite
Fr, 14.05. 8:00 92% 45 km
Fr, 14.05. 2:00 83% 50 km
Do, 13.05. 20:00 89% 35 km
Do, 13.05. 14:00 91% 35 km
Do, 13.05. 8:00 100% 7 km
Do, 13.05. 2:00 100% 27 km
Mi, 12.05. 20:00 88% 40 km
Mi, 12.05. 14:00 91% 35 km
Ortszeit Relative Feuchte Sichtweite
Fr, 14.05. 10:20 88% >10 km
Fr, 14.05. 10:00 95% 40 km
Fr, 14.05. 9:50 94% >10 km
Fr, 14.05. 9:00 91% 45 km
Fr, 14.05. 8:50 88% >10 km
Fr, 14.05. 8:20 94% >10 km
Fr, 14.05. 8:00 92% 45 km
Fr, 14.05. 7:20 94% >10 km
Fr, 14.05. 7:00 92% 40 km
Ortszeit Niederschlagsmenge Niederschlagsart
Fr, 14.05. 8:00 0.0 l/m2 in 12 Std. -
Fr, 14.05. 2:00 0.0 l/m2 in 6 Std. -
Do, 13.05. 20:00 0.0 l/m2 in 12 Std. -
Do, 13.05. 14:00 0.0 l/m2 in 6 Std. -
Do, 13.05. 8:00 0.0 l/m2 in 12 Std. -
Do, 13.05. 2:00 0.0 l/m2 in 6 Std. -
Mi, 12.05. 20:00 0.0 l/m2 in 12 Std. -
Mi, 12.05. 14:00 0.0 l/m2 in 6 Std. -
Ortszeit Niederschlagsmenge Niederschlagsart
Fr, 14.05. 10:20 keine Meldung -
Fr, 14.05. 10:00 0.0 l/m2 in 1 Std. Schauer
Fr, 14.05. 9:50 keine Meldung -
Fr, 14.05. 9:00 0.0 l/m2 in 1 Std. Schauer
Fr, 14.05. 8:50 keine Meldung -
Fr, 14.05. 8:20 keine Meldung -
Fr, 14.05. 8:00 0.0 l/m2 in 1 Std. -
Fr, 14.05. 7:20 keine Meldung -
Fr, 14.05. 7:00 0.0 l/m2 in 1 Std. -
Ortszeit Stärke Spitze Richtung
km/h Bft. km/h Grad Sektor
Fr, 14.05. 8:00 11 2 - 30° NO
Fr, 14.05. 2:00 0 0 - - -
Do, 13.05. 20:00 7 2 - 240° SW
Do, 13.05. 14:00 14 3 - 10° N
Do, 13.05. 8:00 4 1 - 280° W
Do, 13.05. 2:00 7 2 - 250° W
Mi, 12.05. 20:00 11 2 - 250° W
Mi, 12.05. 14:00 7 2 - 350° N
Ortszeit Stärke Spitze Richtung
km/h Bft. km/h Grad Sektor
Fr, 14.05. 10:20 7 2 - 50° NO
Fr, 14.05. 10:00 7 2 14 10° N
Fr, 14.05. 9:50 9 2 - 360° N
Fr, 14.05. 9:00 11 2 14 50° NO
Fr, 14.05. 8:50 7 2 - 40° NO
Fr, 14.05. 8:20 11 2 - 10° N
Fr, 14.05. 8:00 11 2 14 30° NO
Fr, 14.05. 7:20 0 0 - - -
Fr, 14.05. 7:00 7 2 14 90° O
Ortszeit Untergrenze Bedeckung Gattung
total tief tief mittel hoch
Fr, 14.05. 8:00 1800 m 7/8 1/8 Cu As Ci
Fr, 14.05. 2:00 3600 m 1/8 1/8 - - -
Do, 13.05. 20:00 2100 m 5/8 5/8 - - -
Do, 13.05. 14:00 - 0/8 0/8 - - -
Do, 13.05. 8:00 90 m 8/8 8/8 - - -
Do, 13.05. 2:00 1500 m 7/8 7/8 - - -
Mi, 12.05. 20:00 1800 m 5/8 5/8 - - -
Mi, 12.05. 14:00 2700 m 7/8 5/8 - As Ci
Ortszeit Bedeckungsgrad in Achtel und Wolkenuntergrenze
Fr, 14.05. 10:20 keine Wolken(unter 1500 m)
Fr, 14.05. 10:00 1(1800m) 4(2700m) 5(6000m)
Fr, 14.05. 9:50 1-2(1800m) 3-4(2700m)
Fr, 14.05. 9:00 4(2100m) 6(2700m)
Fr, 14.05. 8:50 5-7(2100m) 1-2(2100m)
Fr, 14.05. 8:20 5-7(2100m) 1-2(2100m)
Fr, 14.05. 8:00 1(1800m) 6(3000m)
Fr, 14.05. 7:20 keine Wolken(unter 1500 m)
Fr, 14.05. 7:00 3(1800m) 4(3300m)
Ortszeit Luftdruck NN (hPa) Tendenz (hPa in 3 Std.)
Fr, 14.05. 8:00 1004 - 0,1
Fr, 14.05. 2:00 1004 + 0,2
Do, 13.05. 20:00 1004 - 0,2
Do, 13.05. 14:00 1005 - 1,0
Do, 13.05. 8:00 1007 - 0,5
Do, 13.05. 2:00 1008 + 0,1
Mi, 12.05. 20:00 1006 + 1,2
Mi, 12.05. 14:00 1005 + 0,8
Ortszeit Luftdruck NN (hPa) Tendenz (hPa in 3 Std.)
Fr, 14.05. 10:20 1003 keine Meldung
Fr, 14.05. 10:00 1004 + 0,4
Fr, 14.05. 9:50 1003 keine Meldung
Fr, 14.05. 9:00 1004 - 0,1
Fr, 14.05. 8:50 1003 keine Meldung
Fr, 14.05. 8:20 1003 keine Meldung
Fr, 14.05. 8:00 1004 - 0,1
Fr, 14.05. 7:20 1003 keine Meldung
Fr, 14.05. 7:00 1004 - 1,0
Ortszeit Schneehöhe (cm)
Fr, 14.05. 8:00 0
Fr, 14.05. 2:00 -
Do, 13.05. 20:00 -
Do, 13.05. 14:00 -
Do, 13.05. 8:00 -
Do, 13.05. 2:00 -
Mi, 12.05. 20:00 -
Mi, 12.05. 14:00 -
Ortszeit Schneehöhe (cm)
Fr, 14.05. 10:20 -
Fr, 14.05. 10:00 -
Fr, 14.05. 9:50 -
Fr, 14.05. 9:00 -
Fr, 14.05. 8:50 -
Fr, 14.05. 8:20 -
Fr, 14.05. 8:00 0
Fr, 14.05. 7:20 -
Fr, 14.05. 7:00 -
Link zu dieser Seite / Seite empfehlen

Das Wetter in ...